Weather Roundup
Issued by NWS Chicago, IL

Home | Current Version | Previous Version | Graphics & Text | Print | Product List | Glossary On
Versions: 1 2 3 4 5 6 7 8 9 10 11 12 13 14 15 16 17 18 19 20 21 22 23 24 25 26 27 28 29 30 31 32 33 34 35 36 37 38 39 40 41 42 43 44 45 46 47 48 49 50
000
NZUS59 KLOT 161300
HRRLOT

CHICAGO AREA WEATHER ROUNDUP
NATIONAL WEATHER SERVICE CHICAGO/ROMEOVILLE IL
800 AM CDT WED APR 16 2014

NOTE: "FAIR" INDICATES FEW OR NO CLOUDS BELOW 12,000 FEET WITH NO
SIGNIFICANT WEATHER AND/OR OBSTRUCTIONS TO VISIBILITY.

* THESE STATIONS ARE NOT UNDER NWS QUALITY CONTROL. THEY ALSO MAY NOT
  REPORT WEATHER SUCH AS PRECIPITATION OR FOG.

ILZ005-006-012>014-019>023-161400-
NORTHEAST ILLINOIS

CITY           SKY/WX    TMP DP  RH WIND       PRES   REMARKS
OHARE          MOSUNNY   34  21  59 S12       30.29R WCI  25
MIDWAY         MOSUNNY   35  20  54 S12       30.31R WCI  27
AURORA         PTSUNNY   33  25  72 SE13      30.28R WCI  24
WAUKEGAN       SUNNY     34  21  59 S13       30.29R WCI  25
DUPAGE AIRPORT SUNNY     33  24  69 S12       30.27R WCI  24
WHEELING       SUNNY     35  22  58 S13       30.30R WCI  26
NORTHERLY IS     N/A     34  20  57 S8          N/A  WCI  27
$$

WIZ051-052-058>065-066-070>072-161400-
SOUTHEAST WISCONSIN

CITY           SKY/WX    TMP DP  RH WIND       PRES   REMARKS
MILWAUKEE      PTSUNNY   34  22  61 S8        30.29R WCI  27
KENOSHA*       MOSUNNY   33  23  66 S8        30.29R WCI  26
RACINE*        CLOUDY    35  24  64 S9        30.31R WCI  28
$$

INZ001>003-010>013-019-020-161400-
NORTHWEST INDIANA

CITY           SKY/WX    TMP DP  RH WIND       PRES   REMARKS
GARY*          MOSUNNY   34  21  60 SE9       30.33R WCI  26
MICHIGAN CITY* NOT AVBL
RENSSELAER*    NOT AVBL
VALPARAISO     SUNNY     30  21  69 SE9       30.34R WCI  22
$$

LMZ740>746-161400-
SOUTHERN LAKE MICHIGAN

STATION/POSITION TIME  SKY/WX   TEMP WIND        PRES    VSBY
                                AIR  DIR/SP/G
                 (UTC)          (F)  (DEG/KT/KT) (MB)    (MI)
HARRISON CRIB    1200            34  170/ 22/ 26   N/A
BURNHAM HARBOR   1300            34  170/  9/ 12   N/A
CALUMET HARBOR   1200            32  150/  8/ 12 1027.1R
BURNS HARBOR     NOT AVBL
MICHIGAN CITY    1200            30  140/ 11/ 14   N/A
$$

ABBREVIATIONS USED IN REMARKS
   TC - TEMPERATURE IN CELSIUS
  WCI - WIND CHILL INDEX
   HX - HEAT INDEX
  VSB - VISIBILITY
$$


USA.gov is the U.S. government's official web portal to all federal, state and local government web resources and services.